Location: *
(50.9167°S, 179.4000°W)
Time: 21:32:50
(UTC+00:00)

Cosmos 841 Rocket - Pass Details

Date: 03 March 2024
Orbit: 746 x 769 km, 74.0° (Epoch: 16 April)

Event Time Altitude Azimuth Distance (km) Brightness Sun altitude
Rises 16:33:30 0° 206° (SSW) 3,268 6.7 -9.6°
Reaches altitude 10° 16:35:53 10° 207° (SSW) 2,339 6.0 -9.3°
Maximum altitude 16:41:12 78° 291° (WNW) 802 3.5 -8.5°
Drops below altitude 10° 16:46:29 10° 17° (NNE) 2,321 6.0 -7.7°
Sets 16:48:51 0° 18° (NNE) 3,242 6.7 -7.4°
